HZ103 LOWI-EIDL

Flight info

Callsign HZ103
Flight time 2h 10m
Altitude 43000
Route KPT L608 DENUT L610 GILDA M14 STOAT L613 MOGLI UP6 TUPEM DCT MAGEE DCT RUBEX
Aircraft C750/M-SBDE3FGHRWXY/S

Departure

Time 2026-04-25 13:26
Airport Innsbruck Airport (LOWI)

Arrival

Time 2026-04-25 15:36
Airport Donegal Airport (EIDL)
Time Latitude Longitude Altitude Speed Heading
2026-04-25 13:07 47.25789 11.34752 1903 ft 0 kts 171°
2026-04-25 13:18 47.25802 11.34749 1903 ft 3 kts 167°
2026-04-25 13:19 47.25821 11.34740 1903 ft 3 kts 152°
2026-04-25 13:19 47.25836 11.34725 1901 ft 3 kts 120°
2026-04-25 13:19 47.25841 11.34706 1903 ft 1 kts 82°
2026-04-25 13:19 47.25840 11.34704 1903 ft 0 kts 82°
2026-04-25 13:21 47.25841 11.34714 1903 ft 3 kts 82°
2026-04-25 13:22 47.25848 11.34774 1903 ft 9 kts 81°
2026-04-25 13:22 47.25860 11.34892 1903 ft 14 kts 81°
2026-04-25 13:22 47.25879 11.35062 1903 ft 18 kts 81°
2026-04-25 13:23 47.25946 11.35285 1903 ft 9 kts 351°
2026-04-25 13:23 47.26011 11.35271 1903 ft 10 kts 351°
2026-04-25 13:23 47.26083 11.35254 1903 ft 11 kts 351°
2026-04-25 13:23 47.26121 11.35321 1903 ft 10 kts 79°
2026-04-25 13:24 47.26132 11.35432 1902 ft 13 kts 81°
2026-04-25 13:24 47.26113 11.35570 1903 ft 15 kts 107°
2026-04-25 13:24 47.26119 11.35727 1903 ft 13 kts 58°
2026-04-25 13:24 47.26163 11.35708 1898 ft 8 kts 266°
2026-04-25 13:25 47.26157 11.35659 1900 ft 1 kts 262°
2026-04-25 13:25 47.26155 11.35639 1896 ft 6 kts 262°
2026-04-25 13:25 47.26124 11.35337 1903 ft 77 kts 261°
2026-04-25 13:25 47.25989 11.34084 1985 ft 146 kts 263°
2026-04-25 13:26 47.25836 11.32585 2606 ft 152 kts 263°
2026-04-25 13:26 47.25678 11.30985 3193 ft 170 kts 263°
2026-04-25 13:26 47.25491 11.29113 3611 ft 199 kts 263°
2026-04-25 13:26 47.25328 11.26972 3989 ft 222 kts 275°
2026-04-25 13:27 47.25824 11.24826 4720 ft 220 kts 296°
2026-04-25 13:27 47.26448 11.22775 5497 ft 221 kts 294°
2026-04-25 13:27 47.27035 11.20743 6349 ft 215 kts 294°
2026-04-25 13:27 47.27626 11.18697 7086 ft 219 kts 293°
2026-04-25 13:28 47.28231 11.16636 7889 ft 219 kts 293°
2026-04-25 13:28 47.28434 11.15943 8171 ft 220 kts 293°
2026-04-25 13:28 47.29445 11.12465 9507 ft 222 kts 291°
2026-04-25 13:28 47.30054 11.10367 10173 ft 224 kts 291°
2026-04-25 13:29 47.30526 11.08177 10688 ft 228 kts 276°
2026-04-25 13:29 47.30466 11.05819 11150 ft 235 kts 266°
2026-04-25 13:29 47.30365 11.03423 11807 ft 231 kts 267°
2026-04-25 13:30 47.30200 10.98620 12878 ft 241 kts 267°
2026-04-25 13:30 47.30105 10.96132 13387 ft 245 kts 267°
2026-04-25 13:30 47.30005 10.93579 13701 ft 260 kts 268°
2026-04-25 13:31 47.29791 10.87804 13808 ft 306 kts 268°
2026-04-25 13:31 47.30143 10.84605 13786 ft 333 kts 290°
2026-04-25 13:31 47.31415 10.81630 13957 ft 354 kts 311°
2026-04-25 13:31 47.33221 10.79168 14699 ft 354 kts 316°
2026-04-25 13:32 47.35085 10.76750 15329 ft 359 kts 316°
2026-04-25 13:32 47.36969 10.74271 15834 ft 367 kts 316°
2026-04-25 13:32 47.38871 10.71750 16507 ft 369 kts 317°
2026-04-25 13:32 47.40975 10.69513 17040 ft 376 kts 323°
2026-04-25 13:33 47.43126 10.67380 17690 ft 379 kts 324°
2026-04-25 13:33 47.45310 10.65167 18401 ft 381 kts 322°
2026-04-25 13:33 47.47490 10.62903 19017 ft 385 kts 322°
2026-04-25 13:33 47.48980 10.61360 19400 ft 389 kts 323°
2026-04-25 13:34 47.51945 10.58336 20288 ft 393 kts 323°
2026-04-25 13:34 47.54240 10.55991 20912 ft 398 kts 323°
2026-04-25 13:34 47.56492 10.53670 21502 ft 402 kts 323°
2026-04-25 13:34 47.58795 10.51290 22084 ft 406 kts 323°
2026-04-25 13:35 47.61167 10.48848 22597 ft 412 kts 323°
2026-04-25 13:35 47.63535 10.46412 23177 ft 416 kts 323°
2026-04-25 13:35 47.65926 10.43945 23738 ft 421 kts 323°
2026-04-25 13:35 47.68334 10.41451 24242 ft 423 kts 323°
2026-04-25 13:36 47.70752 10.38948 24808 ft 425 kts 323°
2026-04-25 13:36 47.73186 10.36428 25344 ft 427 kts 323°
2026-04-25 13:36 47.75579 10.33804 25792 ft 429 kts 319°
2026-04-25 13:36 47.77883 10.30968 26352 ft 430 kts 319°
2026-04-25 13:37 47.80195 10.28131 26881 ft 432 kts 319°
2026-04-25 13:37 47.82536 10.25298 27392 ft 435 kts 320°
2026-04-25 13:37 47.84889 10.22446 27934 ft 437 kts 320°
2026-04-25 13:37 47.87244 10.19560 28452 ft 440 kts 319°
2026-04-25 13:38 47.89609 10.16655 29053 ft 440 kts 321°
2026-04-25 13:38 47.91980 10.13755 29602 ft 442 kts 321°
2026-04-25 13:38 47.94360 10.10846 30253 ft 441 kts 321°
2026-04-25 13:38 47.96721 10.07949 30881 ft 439 kts 321°
2026-04-25 13:39 47.98310 10.05994 31259 ft 438 kts 321°
2026-04-25 13:39 48.00658 10.03104 31844 ft 437 kts 320°
2026-04-25 13:39 48.03756 9.99292 32679 ft 434 kts 320°
2026-04-25 13:39 48.06081 9.96423 33253 ft 434 kts 320°
2026-04-25 13:40 48.07652 9.94483 33662 ft 433 kts 320°
2026-04-25 13:40 48.09971 9.91616 34246 ft 432 kts 320°
2026-04-25 13:40 48.13031 9.87830 34953 ft 430 kts 320°
2026-04-25 13:40 48.14584 9.85906 35320 ft 429 kts 320°
2026-04-25 13:41 48.16878 9.83059 35907 ft 426 kts 320°
2026-04-25 13:41 48.19156 9.80230 36478 ft 425 kts 320°
2026-04-25 13:41 48.21428 9.77406 37009 ft 424 kts 320°
2026-04-25 13:41 48.23694 9.74585 37546 ft 423 kts 320°
2026-04-25 13:42 48.25947 9.71777 38182 ft 419 kts 320°
2026-04-25 13:42 48.28183 9.68987 38757 ft 417 kts 319°
2026-04-25 13:42 48.30415 9.66199 39162 ft 417 kts 319°
2026-04-25 13:42 48.32643 9.63413 39550 ft 417 kts 319°
2026-04-25 13:43 48.34869 9.60622 39950 ft 417 kts 319°
2026-04-25 13:43 48.37077 9.57804 40357 ft 416 kts 319°
2026-04-25 13:43 48.39273 9.54966 40760 ft 416 kts 318°
2026-04-25 13:43 48.41477 9.52139 41162 ft 416 kts 319°
2026-04-25 13:44 48.43685 9.49323 41604 ft 415 kts 319°
2026-04-25 13:44 48.45882 9.46512 42026 ft 415 kts 318°
2026-04-25 13:44 48.48074 9.43688 42405 ft 415 kts 318°
2026-04-25 13:44 48.50268 9.40860 42788 ft 415 kts 318°
2026-04-25 13:45 48.52450 9.38055 43108 ft 412 kts 318°
2026-04-25 13:45 48.56850 9.32379 43073 ft 416 kts 318°
2026-04-25 13:46 48.61289 9.26805 43053 ft 416 kts 324°
2026-04-25 13:46 48.66544 9.22825 43090 ft 432 kts 334°
2026-04-25 13:47 48.72144 9.19117 43090 ft 447 kts 334°
2026-04-25 13:47 48.77984 9.15247 43087 ft 462 kts 334°
2026-04-25 13:48 48.83970 9.11274 43086 ft 476 kts 334°
2026-04-25 13:48 48.90062 9.07206 43096 ft 479 kts 334°
2026-04-25 13:49 48.96141 9.02941 43105 ft 485 kts 333°
2026-04-25 13:49 49.02311 8.98681 43112 ft 487 kts 334°
2026-04-25 13:50 49.08479 8.94377 43111 ft 488 kts 333°
2026-04-25 13:50 49.14655 8.90063 43110 ft 488 kts 334°
2026-04-25 13:51 49.20877 8.85907 43091 ft 490 kts 339°
2026-04-25 13:51 49.27381 8.82776 43111 ft 490 kts 340°
2026-04-25 13:52 49.33873 8.79585 43112 ft 490 kts 340°
2026-04-25 13:52 49.40364 8.76417 43111 ft 489 kts 340°
2026-04-25 13:53 49.46845 8.73236 43097 ft 488 kts 340°
2026-04-25 13:53 49.53321 8.70047 43109 ft 489 kts 340°
2026-04-25 13:54 49.59801 8.66853 43109 ft 489 kts 340°
2026-04-25 13:54 49.66272 8.63648 43108 ft 488 kts 340°
2026-04-25 13:55 49.72394 8.59325 43098 ft 484 kts 325°
2026-04-25 13:55 49.77547 8.52595 43128 ft 482 kts 315°
2026-04-25 13:56 49.82316 8.45393 43107 ft 482 kts 310°
2026-04-25 13:56 49.85900 8.36600 43107 ft 482 kts 294°
2026-04-25 13:57 49.88082 8.26782 43124 ft 483 kts 289°
2026-04-25 13:57 49.90165 8.16895 43115 ft 482 kts 289°
2026-04-25 13:58 49.92226 8.06987 43129 ft 482 kts 289°
2026-04-25 13:58 49.94252 7.97068 43114 ft 483 kts 286°
2026-04-25 13:59 49.95258 7.86756 43119 ft 484 kts 278°
2026-04-25 13:59 49.96091 7.76454 43135 ft 484 kts 278°
2026-04-25 14:00 49.96907 7.66068 43125 ft 484 kts 278°
2026-04-25 14:00 49.97722 7.55611 43124 ft 484 kts 278°
2026-04-25 14:01 49.98524 7.45221 43129 ft 485 kts 278°
2026-04-25 14:01 49.99313 7.34821 43129 ft 485 kts 278°
2026-04-25 14:02 50.00098 7.24413 43128 ft 485 kts 278°
2026-04-25 14:02 50.00871 7.13986 43133 ft 485 kts 278°
2026-04-25 14:03 50.01637 7.03564 43130 ft 485 kts 278°
2026-04-25 14:03 50.02586 6.93193 43095 ft 484 kts 285°
2026-04-25 14:04 50.05143 6.83562 43113 ft 482 kts 299°
2026-04-25 14:04 50.08406 6.74431 43116 ft 483 kts 299°
2026-04-25 14:05 50.11638 6.65273 43115 ft 482 kts 299°
2026-04-25 14:05 50.14881 6.56116 43126 ft 482 kts 299°
2026-04-25 14:06 50.18288 6.47112 43103 ft 483 kts 306°
2026-04-25 14:06 50.23023 6.39696 43122 ft 486 kts 319°
2026-04-25 14:07 50.28228 6.32980 43130 ft 485 kts 319°
2026-04-25 14:07 50.33406 6.26233 43137 ft 485 kts 319°
2026-04-25 14:08 50.38595 6.19489 43146 ft 484 kts 319°
2026-04-25 14:08 50.43765 6.12724 43145 ft 484 kts 319°
2026-04-25 14:09 50.48941 6.05947 43151 ft 484 kts 319°
2026-04-25 14:09 50.54136 5.99114 43152 ft 485 kts 319°
2026-04-25 14:10 50.59269 5.92350 43159 ft 484 kts 319°
2026-04-25 14:10 50.63797 5.84582 43167 ft 482 kts 303°
2026-04-25 14:11 50.66700 5.75090 43169 ft 483 kts 288°
2026-04-25 14:11 50.68572 5.64925 43182 ft 482 kts 288°
2026-04-25 14:12 50.70630 5.54850 43192 ft 483 kts 288°
2026-04-25 14:12 50.72660 5.44677 43189 ft 483 kts 288°
2026-04-25 14:13 50.74693 5.34577 43189 ft 482 kts 288°
2026-04-25 14:13 50.76701 5.24455 43184 ft 482 kts 288°
2026-04-25 14:14 50.78690 5.14430 43176 ft 482 kts 288°
2026-04-25 14:14 50.80683 5.04308 43182 ft 482 kts 287°
2026-04-25 14:15 50.81993 4.97525 43184 ft 482 kts 287°
2026-04-25 14:15 50.84239 4.85633 43191 ft 482 kts 287°
2026-04-25 14:16 50.86163 4.75526 43191 ft 482 kts 287°
2026-04-25 14:16 50.88089 4.65259 43184 ft 483 kts 287°
2026-04-25 14:17 50.90085 4.55127 43167 ft 483 kts 291°
2026-04-25 14:17 50.93319 4.45811 43191 ft 484 kts 301°
2026-04-25 14:18 50.96815 4.36689 43194 ft 484 kts 300°
2026-04-25 14:18 51.00302 4.27567 43195 ft 484 kts 301°
2026-04-25 14:19 51.03787 4.18429 43199 ft 484 kts 300°
2026-04-25 14:19 51.07261 4.09268 43198 ft 484 kts 300°
2026-04-25 14:20 51.10754 4.00046 43201 ft 484 kts 300°
2026-04-25 14:20 51.14222 3.90839 43197 ft 484 kts 300°
2026-04-25 14:21 51.17672 3.81657 43198 ft 484 kts 300°
2026-04-25 14:21 51.21124 3.72432 43194 ft 485 kts 300°
2026-04-25 14:22 51.23958 3.62729 43183 ft 484 kts 286°
2026-04-25 14:22 51.25407 3.52241 43209 ft 484 kts 282°
2026-04-25 14:23 51.26811 3.41723 43207 ft 484 kts 282°
2026-04-25 14:23 51.28171 3.31192 43204 ft 484 kts 281°
2026-04-25 14:24 51.29521 3.20636 43216 ft 485 kts 282°
2026-04-25 14:24 51.30869 3.10071 43212 ft 485 kts 281°
2026-04-25 14:25 51.32200 2.99496 43215 ft 485 kts 281°
2026-04-25 14:25 51.33528 2.88922 43214 ft 485 kts 281°
2026-04-25 14:26 51.34843 2.78331 43214 ft 486 kts 281°
2026-04-25 14:26 51.36154 2.67728 43214 ft 486 kts 281°
2026-04-25 14:27 51.37459 2.57125 43214 ft 486 kts 281°
2026-04-25 14:27 51.38754 2.46510 43216 ft 486 kts 281°
2026-04-25 14:28 51.40040 2.35880 43214 ft 487 kts 281°
2026-04-25 14:28 51.41320 2.25219 43215 ft 487 kts 281°
2026-04-25 14:29 51.42625 2.14573 43217 ft 487 kts 281°
2026-04-25 14:29 51.43920 2.03911 43218 ft 487 kts 281°
2026-04-25 14:30 51.45194 1.93242 43218 ft 487 kts 280°
2026-04-25 14:30 51.47061 1.77193 43218 ft 488 kts 280°
2026-04-25 14:31 51.48296 1.66464 43218 ft 489 kts 280°
2026-04-25 14:31 51.49518 1.55758 43214 ft 488 kts 280°
2026-04-25 14:32 51.50737 1.44997 43210 ft 489 kts 280°
2026-04-25 14:32 51.51942 1.34254 43213 ft 490 kts 279°
2026-04-25 14:33 51.53138 1.23499 43217 ft 490 kts 279°
2026-04-25 14:33 51.54327 1.12723 43222 ft 490 kts 279°
2026-04-25 14:34 51.55512 1.01868 43218 ft 490 kts 279°
2026-04-25 14:34 51.56685 0.91036 43206 ft 492 kts 279°
2026-04-25 14:35 51.57843 0.80244 43216 ft 491 kts 279°
2026-04-25 14:35 51.58995 0.69412 43219 ft 491 kts 279°
2026-04-25 14:36 51.60348 0.58653 43198 ft 492 kts 287°
2026-04-25 14:36 51.63399 0.48829 43204 ft 495 kts 304°
2026-04-25 14:37 51.68225 0.40874 43196 ft 501 kts 321°
2026-04-25 14:37 51.74260 0.35088 43219 ft 503 kts 330°
2026-04-25 14:38 51.80360 0.29566 43217 ft 502 kts 326°
2026-04-25 14:38 51.85817 0.22656 43204 ft 497 kts 315°
2026-04-25 14:39 51.90724 0.14771 43211 ft 498 kts 314°
2026-04-25 14:39 51.96004 0.07480 43208 ft 499 kts 319°
2026-04-25 14:40 52.01159 -0.00021 43196 ft 498 kts 317°
2026-04-25 14:40 52.06987 -0.06202 43201 ft 503 kts 331°
2026-04-25 14:41 52.13264 -0.11256 43207 ft 503 kts 330°
2026-04-25 14:41 52.19342 -0.16870 43208 ft 502 kts 329°
2026-04-25 14:42 52.23488 -0.20416 43204 ft 503 kts 331°
2026-04-25 14:42 52.31446 -0.28314 43193 ft 498 kts 318°
2026-04-25 14:43 52.36152 -0.36596 43207 ft 497 kts 309°
2026-04-25 14:43 52.40713 -0.45067 43203 ft 497 kts 311°
2026-04-25 14:44 52.45333 -0.53484 43197 ft 497 kts 309°
2026-04-25 14:44 52.49892 -0.62004 43195 ft 497 kts 310°
2026-04-25 14:45 52.54487 -0.70465 43195 ft 496 kts 310°
2026-04-25 14:45 52.59055 -0.79022 43195 ft 496 kts 310°
2026-04-25 14:46 52.63613 -0.87505 43195 ft 496 kts 310°
2026-04-25 14:46 52.68163 -0.96057 43197 ft 496 kts 310°
2026-04-25 14:47 52.71209 -1.01778 43194 ft 497 kts 310°
2026-04-25 14:47 52.76783 -1.11492 43218 ft 500 kts 315°
2026-04-25 14:48 52.81858 -1.19326 43219 ft 499 kts 315°
2026-04-25 14:48 52.86864 -1.27280 43219 ft 499 kts 315°
2026-04-25 14:49 52.91905 -1.35188 43213 ft 499 kts 315°
2026-04-25 14:49 52.96918 -1.43154 43217 ft 499 kts 315°
2026-04-25 14:50 53.01899 -1.51057 43214 ft 498 kts 315°
2026-04-25 14:50 53.06915 -1.59060 43209 ft 501 kts 315°
2026-04-25 14:51 53.11933 -1.67086 43208 ft 500 kts 315°
2026-04-25 14:51 53.16957 -1.75151 43206 ft 500 kts 315°
2026-04-25 14:52 53.21988 -1.83259 43210 ft 500 kts 314°
2026-04-25 14:52 53.25617 -1.90712 43202 ft 498 kts 302°
2026-04-25 14:53 53.29870 -2.02236 43221 ft 499 kts 302°
2026-04-25 14:53 53.33654 -2.11983 43217 ft 500 kts 301°
2026-04-25 14:54 53.37330 -2.21856 43216 ft 500 kts 301°
2026-04-25 14:54 53.41059 -2.31684 43211 ft 500 kts 301°
2026-04-25 14:55 53.44745 -2.41561 43207 ft 500 kts 301°
2026-04-25 14:55 53.48441 -2.51442 43207 ft 500 kts 301°
2026-04-25 14:56 53.52123 -2.61347 43205 ft 501 kts 301°
2026-04-25 14:56 53.55808 -2.71298 43210 ft 501 kts 301°
2026-04-25 14:57 53.59483 -2.81256 43210 ft 501 kts 301°
2026-04-25 14:57 53.63151 -2.91244 43211 ft 501 kts 301°
2026-04-25 14:58 53.66808 -3.01231 43210 ft 501 kts 301°
2026-04-25 14:58 53.70457 -3.11246 43225 ft 501 kts 301°
2026-04-25 14:59 53.74107 -3.21299 43220 ft 502 kts 300°
2026-04-25 14:59 53.77748 -3.31372 43220 ft 502 kts 300°
2026-04-25 15:00 53.81379 -3.41454 43218 ft 502 kts 300°
2026-04-25 15:00 53.85212 -3.51328 43210 ft 502 kts 307°
2026-04-25 15:01 53.89600 -3.60562 43219 ft 503 kts 307°
2026-04-25 15:01 53.93907 -3.69927 43227 ft 504 kts 307°
2026-04-25 15:02 53.98257 -3.79275 43212 ft 504 kts 307°
2026-04-25 15:02 54.02579 -3.88665 43212 ft 504 kts 307°
2026-04-25 15:03 54.06898 -3.98061 43212 ft 504 kts 307°
2026-04-25 15:03 54.11212 -4.07483 43210 ft 504 kts 307°
2026-04-25 15:04 54.15515 -4.16922 43210 ft 504 kts 307°
2026-04-25 15:04 54.19815 -4.26385 43202 ft 505 kts 307°
2026-04-25 15:05 54.24109 -4.35875 43203 ft 505 kts 307°
2026-04-25 15:06 54.30541 -4.50156 43208 ft 505 kts 307°
2026-04-25 15:06 54.34819 -4.59697 43208 ft 505 kts 306°
2026-04-25 15:07 54.39090 -4.69263 43205 ft 505 kts 306°
2026-04-25 15:07 54.43355 -4.78852 43210 ft 506 kts 306°
2026-04-25 15:08 54.47621 -4.88480 43205 ft 506 kts 306°
2026-04-25 15:08 54.51882 -4.98132 43206 ft 506 kts 306°
2026-04-25 15:09 54.56130 -5.07796 43205 ft 506 kts 306°
2026-04-25 15:09 54.62489 -5.22330 43202 ft 506 kts 306°
2026-04-25 15:10 54.66726 -5.32060 43208 ft 507 kts 306°
2026-04-25 15:11 54.73065 -5.46691 43201 ft 507 kts 306°
2026-04-25 15:11 54.77285 -5.56481 43200 ft 507 kts 306°
2026-04-25 15:12 54.83413 -5.71287 42945 ft 487 kts 304°
2026-04-25 15:12 54.85341 -5.75971 41931 ft 460 kts 304°
2026-04-25 15:12 54.85960 -5.77488 41598 ft 451 kts 304°
2026-04-25 15:13 54.88960 -5.84933 40018 ft 458 kts 303°
2026-04-25 15:13 54.92598 -5.93909 38133 ft 452 kts 303°
2026-04-25 15:13 54.94404 -5.98380 37108 ft 451 kts 303°
2026-04-25 15:14 54.96195 -6.02845 36136 ft 450 kts 303°
2026-04-25 15:14 54.97988 -6.07312 35208 ft 450 kts 303°
2026-04-25 15:14 54.99779 -6.11770 34310 ft 449 kts 303°
2026-04-25 15:14 55.01568 -6.16235 33290 ft 450 kts 303°
2026-04-25 15:15 55.03369 -6.20749 32368 ft 456 kts 303°
2026-04-25 15:15 55.05179 -6.25287 31626 ft 454 kts 303°
2026-04-25 15:15 55.06982 -6.29813 31004 ft 456 kts 303°
2026-04-25 15:15 55.08791 -6.34361 30402 ft 457 kts 303°
2026-04-25 15:16 55.10606 -6.38938 29733 ft 460 kts 303°
2026-04-25 15:16 55.12434 -6.43558 29041 ft 463 kts 303°
2026-04-25 15:16 55.16108 -6.52859 27704 ft 467 kts 303°
2026-04-25 15:17 55.19804 -6.62255 26432 ft 469 kts 302°
2026-04-25 15:17 55.21646 -6.66952 25812 ft 469 kts 302°
2026-04-25 15:17 55.23494 -6.71673 25206 ft 471 kts 302°
2026-04-25 15:18 55.25348 -6.76418 24607 ft 472 kts 302°
2026-04-25 15:18 55.28741 -6.86253 23314 ft 472 kts 289°
2026-04-25 15:18 55.29491 -6.91842 22581 ft 471 kts 275°
2026-04-25 15:19 55.29438 -6.97507 21882 ft 461 kts 261°
2026-04-25 15:19 55.29251 -6.99321 21659 ft 436 kts 257°
2026-04-25 15:19 55.27461 -7.06821 20817 ft 371 kts 238°
2026-04-25 15:19 55.26184 -7.10522 20414 ft 343 kts 238°
2026-04-25 15:20 55.24975 -7.14054 20013 ft 334 kts 238°
2026-04-25 15:20 55.23792 -7.17506 19623 ft 328 kts 237°
2026-04-25 15:20 55.22624 -7.20891 19248 ft 322 kts 237°
2026-04-25 15:20 55.21419 -7.24365 18926 ft 351 kts 237°
2026-04-25 15:21 55.20143 -7.28053 18611 ft 354 kts 237°
2026-04-25 15:21 55.18868 -7.31752 18279 ft 356 kts 237°
2026-04-25 15:21 55.17568 -7.35504 17930 ft 355 kts 237°
2026-04-25 15:21 55.16286 -7.39191 17583 ft 355 kts 237°
2026-04-25 15:22 55.15007 -7.42868 17250 ft 353 kts 237°
2026-04-25 15:22 55.14163 -7.45293 17098 ft 353 kts 237°
2026-04-25 15:22 55.12458 -7.50181 16784 ft 352 kts 237°
2026-04-25 15:22 55.11616 -7.52592 16634 ft 351 kts 237°
2026-04-25 15:23 55.10344 -7.56230 16406 ft 350 kts 237°
2026-04-25 15:23 55.09076 -7.59852 16178 ft 349 kts 237°
2026-04-25 15:23 55.07808 -7.63468 15952 ft 349 kts 237°
2026-04-25 15:23 55.06542 -7.67070 15726 ft 348 kts 237°
2026-04-25 15:24 55.05282 -7.70653 15510 ft 346 kts 236°
2026-04-25 15:24 55.04024 -7.74226 15287 ft 345 kts 236°
2026-04-25 15:24 55.02768 -7.77787 15069 ft 344 kts 236°
2026-04-25 15:24 55.01920 -7.80186 14922 ft 344 kts 236°
2026-04-25 15:25 55.00666 -7.83732 14698 ft 343 kts 236°
2026-04-25 15:25 54.99023 -7.88375 14143 ft 331 kts 236°
2026-04-25 15:25 54.97850 -7.91687 13620 ft 312 kts 236°
2026-04-25 15:25 54.96738 -7.94817 13076 ft 297 kts 236°
2026-04-25 15:26 54.95666 -7.97824 12536 ft 288 kts 236°
2026-04-25 15:26 54.94618 -8.00761 12020 ft 277 kts 236°
2026-04-25 15:26 54.93635 -8.03527 11513 ft 272 kts 236°
2026-04-25 15:26 54.92651 -8.06299 11009 ft 267 kts 236°
2026-04-25 15:27 54.91744 -8.09072 10514 ft 261 kts 238°
2026-04-25 15:27 54.90874 -8.11813 10021 ft 257 kts 238°
2026-04-25 15:27 54.89176 -8.17175 8955 ft 251 kts 238°
2026-04-25 15:28 54.88335 -8.19820 8447 ft 249 kts 238°
2026-04-25 15:28 54.87505 -8.22447 7936 ft 248 kts 238°
2026-04-25 15:28 54.86677 -8.25056 7442 ft 245 kts 238°
2026-04-25 15:28 54.85861 -8.27641 6952 ft 244 kts 238°
2026-04-25 15:29 54.85038 -8.30243 6455 ft 242 kts 238°
2026-04-25 15:29 54.84184 -8.32686 5884 ft 238 kts 227°
2026-04-25 15:29 54.82815 -8.34229 5295 ft 235 kts 202°
2026-04-25 15:29 54.81300 -8.35242 4810 ft 232 kts 199°
2026-04-25 15:30 54.79817 -8.36193 4336 ft 219 kts 199°
2026-04-25 15:30 54.78400 -8.37105 4162 ft 211 kts 199°
2026-04-25 15:30 54.77134 -8.38364 4075 ft 212 kts 226°
2026-04-25 15:30 54.76670 -8.40778 4048 ft 221 kts 270°
2026-04-25 15:31 54.77282 -8.43253 3824 ft 231 kts 312°
2026-04-25 15:31 54.78705 -8.44393 3846 ft 229 kts 351°
2026-04-25 15:31 54.80287 -8.44566 3903 ft 234 kts 357°
2026-04-25 15:31 54.81913 -8.44684 3880 ft 234 kts 357°
2026-04-25 15:32 54.83569 -8.44809 3772 ft 235 kts 357°
2026-04-25 15:32 54.85188 -8.44930 3681 ft 232 kts 357°
2026-04-25 15:32 54.86797 -8.45051 3694 ft 232 kts 357°
2026-04-25 15:33 54.89834 -8.43849 3558 ft 220 kts 36°
2026-04-25 15:33 54.91083 -8.42451 3571 ft 213 kts 30°
2026-04-25 15:33 54.92401 -8.41299 3340 ft 209 kts 27°
2026-04-25 15:33 54.93776 -8.40485 3010 ft 208 kts 17°
2026-04-25 15:34 54.95140 -8.39831 2729 ft 197 kts 14°
2026-04-25 15:34 54.96466 -8.39225 2277 ft 197 kts 15°
2026-04-25 15:34 54.97762 -8.38509 1900 ft 194 kts 19°
2026-04-25 15:34 54.98589 -8.37972 1712 ft 189 kts 21°
2026-04-25 15:35 55.01120 -8.36228 761 ft 146 kts 19°
2026-04-25 15:35 55.02026 -8.35660 520 ft 129 kts 18°
2026-04-25 15:35 55.02828 -8.35140 330 ft 120 kts 19°
2026-04-25 15:36 55.04339 -8.34159 30 ft 104 kts 20°
2026-04-25 15:36 55.04722 -8.33906 32 ft 21 kts 18°
2026-04-25 15:36 55.04858 -8.33815 31 ft 21 kts 19°
2026-04-25 15:37 55.04991 -8.33736 28 ft 13 kts
2026-04-25 15:37 55.05038 -8.33718 28 ft 3 kts 90°
2026-04-25 15:37 55.05023 -8.33709 28 ft 4 kts 186°
2026-04-25 15:37 55.04988 -8.33731 28 ft 8 kts 200°
2026-04-25 15:38 55.04910 -8.33781 29 ft 15 kts 200°
2026-04-25 15:38 55.04799 -8.33850 33 ft 19 kts 200°
2026-04-25 15:38 55.04654 -8.33948 34 ft 25 kts 200°
2026-04-25 15:38 55.04464 -8.34070 30 ft 33 kts 200°
2026-04-25 15:39 55.04244 -8.34211 32 ft 32 kts 201°
2026-04-25 15:39 55.04040 -8.34344 34 ft 31 kts 200°
2026-04-25 15:39 55.03909 -8.34428 30 ft 10 kts 194°
2026-04-25 15:39 55.03881 -8.34363 30 ft 6 kts 107°
2026-04-25 15:40 55.03880 -8.34290 30 ft 6 kts 69°
2026-04-25 15:40 55.03883 -8.34273 30 ft 0 kts 69°
2026-04-25 15:40 55.03883 -8.34251 30 ft 2 kts 126°
2026-04-25 15:40 55.03875 -8.34254 30 ft 2 kts 201°
2026-04-25 15:41 55.03859 -8.34266 30 ft 1 kts 191°
2026-04-25 15:41 55.03855 -8.34267 30 ft 0 kts 192°